Location: Clover
(42.5131°N, 114.6874°W)
Time: 13:19:10
(UTC+00:00)

Explorer 7 - Pass Details

Date: 18 December 2025
Orbit: 433 x 550 km, 50.2° (Epoch: 13 January)

Event Time Altitude Azimuth Distance (km) Brightness Sun altitude
Rises 02:35:25 0° 297° (WNW) 2,446 10.9 -26.3°
Reaches altitude 10° 02:37:51 10° 312° (NW) 1,560 9.6 -26.8°
Enters shadow 02:38:31 14° 319° (NW) 1,347 9.1 -26.9°
